VALLADOLID / VILLANUBLA current weather conditions

sailwx.info

Wind from 050 at 16 knots

Air temperature 20.0° C
Visibility: greater than 5.4 NM
Dewpoint 12.0° C

Last reported at 2014-Jul-28 19:30 UTC.
Time now 2014-Jul-29 00:41 UTC

Location: N 41°43' W 004°51'.
View on Google Maps.

See reports from other nearby stations

  
Tides and Currents Weather Stations Pressure Air Temp Water Temp Dewpoint Dewpoint Depression Visibility Wind Speed Wind Dir Waves Ship Positions
date/time (UTC)wind fromknots sea level pressurealtimeterstation pressurevisibilityair tempwater tempwave heightnotes
2014-Jul-28 19:30 050 16 5.420.0
2014-Jul-28 19:00 060 16 5.421.0
2014-Jul-28 18:30 070 18 5.422.0
2014-Jul-28 18:00 060 16 5.424.0
2014-Jul-28 17:30 5.426.0
2014-Jul-28 17:00 010 6 27.0
2014-Jul-28 16:30 020 11 27.0
2014-Jul-28 16:00 340 7 28.0
2014-Jul-28 15:30 020 6 27.0
2014-Jul-28 15:00 350 9 28.0
2014-Jul-28 14:30 28.0
2014-Jul-28 14:00 340 6 27.0
2014-Jul-28 13:30 330 5 27.0
2014-Jul-28 13:00 050 4 26.0
2014-Jul-28 12:30 060 2 gusting 13 27.0
2014-Jul-28 12:00 030 6 26.0
2014-Jul-28 11:30 050 5 gusting 15 25.0
2014-Jul-28 11:00 060 6 24.0
2014-Jul-28 10:30 060 7 24.0
2014-Jul-28 10:00 070 10 23.0
2014-Jul-28 09:30 070 11 22.0
2014-Jul-28 09:00 070 11 21.0
2014-Jul-28 08:30 070 11 20.0
2014-Jul-28 08:00 070 13 19.0
2014-Jul-28 07:30 070 12 18.0
2014-Jul-28 07:00 080 9 17.0
2014-Jul-28 06:30 060 9 17.0
2014-Jul-28 06:00 060 6 16.0
2014-Jul-28 05:30 050 10 16.0
2014-Jul-28 05:00 050 10 16.0
2014-Jul-27 19:30 070 5 27.0
2014-Jul-27 19:00 060 6 28.0
2014-Jul-27 18:30 070 8 30.0
2014-Jul-27 18:00 030 7 31.0
2014-Jul-27 17:30 060 5 30.0
2014-Jul-27 17:00 030 7 31.0
2014-Jul-27 16:30 060 3 31.0
2014-Jul-27 16:00 32.0
2014-Jul-27 15:30 310 2 32.0
2014-Jul-27 15:00 280 2 5.432.0
2014-Jul-27 14:30 270 4 5.432.0
2014-Jul-27 14:00 270 5 5.432.0
2014-Jul-27 13:30 110 2 31.0
2014-Jul-27 13:00 020 3 30.0
2014-Jul-27 12:30 030 4 29.0
2014-Jul-27 12:00 29.0
2014-Jul-27 11:30 080 7 29.0
2014-Jul-27 11:00 080 8 27.0
2014-Jul-27 10:30 080 9 26.0
2014-Jul-27 10:00 070 9 26.0
2014-Jul-27 09:30 070 9 24.0
2014-Jul-27 09:00 070 9 23.0
2014-Jul-27 08:30 080 8 22.0
2014-Jul-27 08:00 060 11 20.0
2014-Jul-27 07:30 070 11 19.0
2014-Jul-27 07:00 070 11 18.0
2014-Jul-27 06:30 070 12 17.0
2014-Jul-27 06:00 080 11 17.0
2014-Jul-27 05:30 080 9 16.0
2014-Jul-27 05:00 050 11 16.0